Вернуться в каталог

ARIANE 44LP DEB

АктивенGTO
NORAD 44573·DEBRIS·🇫🇷 France

Запущен Sep 10, 1992 с Guiana Space Centre

Loading…

TLE

УстаревшееSource: Space-Track

Эпоха: Sep 10, 2026, 06:25 UTC

1 44573U 92060J   26253.26754765 -.00000327  00000-0 -21950-2 0  9993
2 44573   7.1418 299.7814 7168343  97.2551 328.9603  2.23367694101439

Отслеживайте ARIANE 44LP DEB в реальном времени с AllMySat

Download on the App Store